Starlink 32454

operational
NORAD ID: 62142 Int'l Des: 2024-224 Owner: SPXS Country: US Constellation: starlink
LEOCIRCULAR

About Starlink 32454

Description loading...

Live Position

Loading 3D Globe...

Upcoming Passes

Altitude History

Altitude vs Time

uPlot chart will show altitude changes over time

Two-Line Element Set

1 62142U 24224D 25303.64054992 .00034851 00000-0 12702-2 0 9996
2 62142 43.0009 180.0852 0002119 286.1350 73.9268 15.27572890 52508
Epoch: Oct 30, 2025 • Age: 17 hours

Current Status

Altitude 490.6 km
Velocity 7.62 km/s
Sub-Earth Point -30.82°S, 125.13°W
Launch Date Nov 30, 2024
Age 0.9 years
Type internet

Technical Details

Classification Payload
Mass 730.00 kg
Dry Mass 700.00 kg
Total Mass 730.00 kg
Length 0.30 m
Diameter 4.10 m
Span 29.00 m
Shape Box + pan
Manufacturer SPXS
Bus Type Starlink V2M
Phase Status In Orbit
Owner/State SPXS/US

Large Constellations

Loading constellations...